Flag for U.S.A. Weather past 2 weeks in Tuscaloosa, Alabama, U.S.A.

Now
58 °F

Heavy rain. Fog.


Feels Like: 58 °F
Forecast: 48 / 57 °F
Wind: No wind

Location: Tuscaloosa Municipal Airport

Current Time: Dec 28, 2014 at 5:36:37 AM

Latest Report: Dec 28, 2014 at 4:53 AM


Visibility: 2 mi

Pressure: 30.05 "Hg

Humidity: 93%

Dew point: 56 °F

Location of TuscaloosaLocation

Historic Weather in Tuscaloosa — Graph

°F

Tuscaloosa temperature yesterday

Maximum temperature yesterday: 58 °F (at 1:53 PM)
Minimum temperature yesterday: 47 °F (at 5:53 AM)
Average temperature yesterday: 53 °F

Past Weeks' High & Low Weather Summary

 TemperatureHumidityPressure
High64 °F (Dec 15, 9:53 PM)97% (Dec 14, 11:53 PM)30.36 "Hg (Dec 14, 11:53 PM)
Low30 °F (Dec 13, 5:53 AM)39% (Dec 18, 2:53 PM)29.55 "Hg (Dec 24, 2:53 AM)
Average49 °F80%30.10 "Hg
* Reported Dec 13 3:53 AM — Dec 28 3:53 AM, Tuscaloosa, Weather by CustomWeather, © 2014

Note: Actual official high and low records may vary slightly from our data, if they occured in-between our weather recording intervals... More about our weather records

Advertising

Tuscaloosa weather history for previous 24 hours

 ConditionsComfort  
Time TempWeatherWind HumidityBarometerVisibility
3:53 AM
Dec 28
58 °FLight rain. Fog.5 mph97%30.03 "Hg5 mi
2:53 AM59 °FLight rain. Low clouds.7 mph93%30.04 "Hg7 mi
1:53 AM58 °FRain. Fog.5 mph97%30.04 "Hg6 mi
12:53 AM58 °FRain. Fog.10 mph97%30.05 "Hg4 mi
11:53 PM
Dec 27
56 °FLight rain. Passing clouds.6 mph93%30.07 "Hg10 mi
11:00 PM55 °FRain. Fog.9 mph96%30.11 "Hg4 mi
10:02 PM54 °FHeavy rain. Fog.15 mph97%30.14 "Hg2 mi
8:53 PM54 °FThundershowers. Fog.5 mph93%30.14 "Hg3 mi
7:53 PM53 °FHeavy rain. Fog.5 mph93%30.13 "Hg4 mi
6:53 PM53 °FOvercast.6 mph89%30.13 "Hg10 mi
5:53 PM54 °FOvercast.5 mph86%30.16 "Hg10 mi
4:53 PM54 °FOvercast.3 mph86%30.16 "Hg10 mi
4:03 PM54 °FMostly cloudy.7 mph86%30.17 "Hg10 mi
3:53 PM54 °FMore clouds than sun.8 mph86%30.17 "Hg10 mi
2:53 PM56 °FLight rain. Overcast.13 mph81%30.17 "Hg9 mi
1:53 PM58 °FOvercast.8 mph70%30.14 "Hg10 mi
12:53 PM57 °FMostly cloudy.6 mph69%30.16 "Hg10 mi
11:53 AM55 °FOvercast.5 mph74%30.19 "Hg10 mi
10:53 AM53 °FMostly cloudy.6 mph77%30.24 "Hg10 mi
9:53 AM50 °FLight rain. Fog.7 mph89%30.28 "Hg5 mi
8:53 AM50 °FLight rain. More clouds than sun.5 mph89%30.29 "Hg10 mi
7:53 AM48 °FOvercast.7 mph93%30.30 "Hg9 mi
6:53 AM48 °FRain. Fog.5 mph89%30.29 "Hg4 mi
5:53 AM47 °FRain. Fog.6 mph90%30.25 "Hg5 mi
Weather by CustomWeather, © 2014

See weather overviewHow to use our weather pages